Lapse_Rate
6.6 6.1 6.0 5.5 5.6 5.3 5.6 5.9 5.7 5.8 6.1 6.2 5.8 5.8 5.9 6.0 6.1 6.0 5.9 5.8 5.6 5.5 5.5 5.5 5.6 5.6 5.5 5.7 6.0 6.0 6.0 6.0 5.9 5.6 5.6 5.6 5.7 5.7 5.8 5.9 6.0 6.0 6.1
6.8 6.3 6.2 5.6 5.7 5.4 5.5 5.5 5.7 5.6 5.9 6.0 6.1 6.1 5.9 6.0 6.0 6.1 6.1 6.1 5.9 5.6 5.3 5.4 5.5 5.6 5.7 5.7 5.8 6.0 6.0 6.0 5.9 5.8 5.6 5.6 5.5 5.6 5.7 5.9 6.0 6.1 6.1
7.0 6.6 6.3 5.7 5.7 5.8 5.8 5.5 5.5 5.7 5.7 5.9 6.0 6.1 6.2 6.0 6.0 6.0 6.1 6.2 6.1 5.8 5.4 5.1 5.4 5.7 5.9 6.0 6.0 5.9 6.0 6.0 6.1 6.0 5.8 5.6 5.6 5.4 5.5 5.7 5.8 6.0 6.1
7.4 7.0 6.6 6.2 6.1 6.2 6.1 5.9 5.7 5.6 5.5 5.8 5.9 6.1 6.1 6.1 6.0 6.0 5.9 5.9 6.0 5.6 5.8 5.5 5.4 5.6 5.9 6.1 6.1 6.1 6.1 6.1 6.1 6.3 6.0 6.0 5.7 5.7 5.6 5.5 5.7 5.7 5.8
7.6 7.3 6.9 6.6 6.4 6.4 6.3 6.1 6.0 5.8 5.8 5.7 5.9 6.0 6.0 6.1 6.0 5.9 5.9 5.8 5.6 5.7 5.7 5.5 5.5 5.6 5.9 6.0 6.1 6.2 6.2 6.0 6.1 6.1 6.1 6.1 6.0 5.7 5.8 5.6 5.4 5.6 5.7
7.7 7.5 7.4 6.8 6.7 6.6 6.5 6.3 6.3 6.2 6.0 6.0 5.9 5.8 6.0 6.0 6.0 6.0 5.9 5.9 5.7 5.5 5.6 5.6 5.6 5.6 5.8 5.9 6.2 6.2 6.3 6.3 6.1 6.0 6.1 6.1 6.1 6.0 5.8 5.7 5.5 5.4 5.6
7.9 7.7 7.6 7.1 7.0 6.8 6.7 6.5 6.6 6.5 6.4 6.2 6.1 5.9 5.8 5.8 5.9 5.9 5.9 5.9 5.8 5.6 5.6 5.5 5.7 5.8 5.7 5.8 5.8 6.2 6.4 6.4 6.5 6.3 6.2 6.2 6.1 6.0 5.9 5.7 5.6 5.6 5.4
7.8 7.7 7.7 7.7 7.6 7.4 7.0 6.8 6.5 6.4 6.4 6.4 6.2 6.0 5.8 5.8 5.8 5.9 5.9 5.9 5.9 5.8 5.7 5.7 5.8 5.9 6.1 5.9 5.8 5.8 6.1 6.1 6.3 6.4 6.3 6.3 6.3 6.2 6.0 5.9 5.8 5.6 5.4
7.5 7.5 7.4 7.3 7.1 7.2 7.0 6.7 6.6 6.5 6.5 6.4 6.3 6.1 6.0 6.0 6.0 6.1 6.2 6.1 6.1 6.0 5.9 5.7 5.9 6.0 6.0 5.9 6.0 5.9 5.9 6.0 6.0 6.0 6.1 6.2 6.2 6.4 6.1 6.0 5.8 5.8 5.6
7.2 7.1 7.3 7.4 7.1 7.2 7.3 6.9 6.7 6.5 6.2 6.3 6.3 6.2 6.1 6.1 6.2 6.2 6.2 6.2 6.2 6.3 6.2 6.0 6.1 6.1 6.1 6.1 6.2 6.2 6.0 6.0 6.1 6.0 6.0 6.0 6.2 6.2 6.2 6.0 5.9 5.8 5.6
7.2 7.1 7.1 7.4 7.1 7.2 7.3 7.4 7.0 6.7 6.5 6.4 6.5 6.4 6.3 6.3 6.3 6.3 6.3 6.3 6.4 6.4 6.4 6.4 6.4 6.4 6.3 6.2 6.1 6.2 6.2 6.0 6.0 6.0 6.1 5.9 5.9 6.0 6.2 6.1 5.9 5.8 5.8
7.5 7.5 7.7 7.4 7.4 7.1 7.1 7.1 6.9 6.7 6.8 6.7 6.6 6.6 6.6 6.6 6.5 6.4 6.5 6.4 6.5 6.6 6.5 6.5 6.4 6.5 6.4 6.3 6.2 6.1 6.0 5.9 5.9 5.9 5.9 6.0 5.9 5.8 5.8 5.9 6.0 5.8 5.7
7.7 7.9 7.5 7.6 7.5 7.3 7.3 7.1 7.0 7.0 7.0 6.7 6.7 6.7 6.6 6.7 6.5 6.5 6.6 6.6 6.6 6.6 6.5 6.5 6.5 6.5 6.5 6.4 6.3 6.1 6.0 6.0 5.9 5.8 5.7 5.8 6.0 5.9 5.8 5.7 5.8 5.6 5.7
7.4 7.5 7.4 7.4 7.6 7.4 7.4 7.3 7.3 7.3 7.0 7.0 6.7 6.7 6.7 6.7 6.7 6.7 6.6 6.6 6.5 6.5 6.4 6.4 6.4 6.5 6.4 6.3 6.3 6.1 6.1 6.1 6.0 6.0 5.9 5.8 5.8 6.0 5.9 5.8 5.8 5.8 5.7
6.9 7.0 6.8 6.8 6.8 6.7 6.6 6.6 6.7 6.9 6.6 6.8 6.7 6.5 6.5 7.1 7.2 6.5 6.6 6.7 6.5 6.4 6.3 6.3 6.5 6.3 6.4 6.4 6.5 6.4 6.1 6.0 6.0 6.0 6.0 6.1 6.0 5.9 6.0 5.9 5.7 5.8 5.8
6.9 7.0 6.7 6.5 6.3 6.4 6.5 6.3 6.4 6.5 6.6 6.7 6.5 6.1 6.2 6.3 6.5 6.7 6.8 6.5 6.5 6.4 6.4 6.3 6.4 6.5 6.5 6.5 6.5 6.5 6.3 6.2 6.1 6.0 5.9 5.9 6.0 6.0 6.1 6.2 6.2 5.9 5.8
6.6 6.6 6.5 6.3 6.1 6.0 6.1 6.1 6.1 6.3 6.1 6.3 5.9 5.7 6.0 6.1 6.2 6.3 6.4 6.4 6.4 6.6 6.5 6.5 6.4 6.4 6.5 6.7 6.6 6.6 6.6 6.5 6.3 6.2 6.2 6.1 5.9 5.9 6.0 6.3 6.4 6.2 6.0
6.7 6.6 6.3 6.2 6.0 5.9 5.9 5.9 6.1 6.2 6.2 5.6 5.6 5.6 6.0 6.0 6.1 6.1 6.3 6.3 6.3 6.4 6.4 6.5 6.6 6.6 6.6 6.7 6.8 6.8 6.8 6.7 6.6 6.5 6.5 6.5 6.4 6.1 6.1 5.9 6.6 6.7 6.4
6.7 6.6 6.4 6.2 6.1 6.0 5.8 5.7 5.8 5.8 5.8 5.5 5.7 5.9 5.9 5.9 6.0 6.1 6.2 6.2 6.3 6.4 6.5 6.6 6.7 6.8 6.8 6.9 6.9 6.9 7.0 6.9 6.8 6.7 6.6 6.6 6.7 6.7 6.5 6.4 6.3 6.5 6.7
6.7 6.7 6.6 6.4 6.2 6.1 6.0 5.8 5.8 5.9 5.9 5.8 5.8 5.8 5.8 5.9 6.0 6.1 6.2 6.3 6.4 6.5 6.6 6.7 6.8 6.9 6.9 7.0 7.0 7.1 7.1 7.1 7.0 6.9 6.8 6.8 6.9 6.9 6.8 6.5 6.5 6.4 6.4
6.5 6.5 6.4 6.2 6.2 6.1 6.1 6.0 5.9 5.8 5.8 5.8 5.9 5.9 6.0 6.1 6.1 6.2 6.3 6.4 6.5 6.6 6.7 6.7 6.8 6.8 6.9 7.0 7.0 7.1 7.0 7.0 7.1 7.1 7.1 7.0 6.9 6.9 6.9 6.8 6.6 6.5 6.4
6.2 6.2 6.2 6.1 6.0 6.0 5.9 6.0 6.0 5.9 5.9 5.8 5.9 6.0 6.1 6.1 6.2 6.3 6.4 6.5 6.6 6.7 6.7 6.7 6.8 6.8 6.9 6.9 6.9 7.0 7.0 7.0 7.1 7.2 7.2 7.1 7.1 7.0 7.1 7.0 7.0 6.8 6.5
5.9 5.9 6.0 6.1 6.1 6.0 5.9 5.8 5.9 5.9 6.0 6.0 6.0 6.0 6.1 6.1 6.2 6.3 6.4 6.5 6.6 6.6 6.7 6.8 6.8 6.9 6.9 6.9 7.0 7.0 7.0 7.0 7.1 7.1 7.1 7.1 7.2 7.0 7.0 7.2 7.1 7.1 7.0
5.5 5.5 5.6 5.7 5.8 5.8 5.8 5.6 5.6 5.6 5.7 5.8 5.9 6.0 6.0 6.1 6.2 6.2 6.3 6.4 6.4 6.5 6.6 6.7 6.7 6.7 6.7 6.8 6.9 7.0 6.9 7.0 7.0 7.0 7.0 7.1 7.1 7.1 7.1 7.0 6.9 7.1 7.1
5.2 5.1 5.1 5.1 5.1 5.2 5.3 5.3 5.4 5.4 5.4 5.5 5.7 5.8 5.9 6.1 6.2 6.3 6.4 6.5 6.5 6.6 6.6 6.6 6.6 6.6 6.6 6.6 6.6 6.7 6.8 6.8 6.9 7.0 7.1 7.0 7.0 7.1 7.1 7.1 7.0 6.9 7.0
5.4 5.2 5.1 5.0 5.0 5.0 5.1 5.1 5.1 5.2 5.3 5.4 5.4 5.5 5.7 5.7 5.8 5.9 6.1 6.2 6.3 6.4 6.5 6.6 6.7 6.7 6.7 6.6 6.6 6.6 6.7 6.8 6.8 6.9 7.0 7.0 6.9 6.9 7.0 7.0 7.0 7.0 7.0
Wind_Speed
3 1 7 11 12 15 15 17 17 16 16 15 14 15 14 13 12 12 11 10 13 14 13 13 12 12 12 12 13 13 12 13 13 13 14 14 14 15 13 11 12 17 18
8 1 7 7 10 15 17 11 15 15 16 17 14 13 12 11 10 10 10 8 9 13 13 12 12 11 12 12 11 11 11 13 12 10 7 15 15 14 13 13 15 16 17
6 3 5 7 9 12 18 19 19 13 15 16 15 13 11 11 10 10 8 8 7 13 13 12 12 10 11 10 10 9 10 11 11 8 5 13 14 15 12 13 13 14 17
6 4 3 8 10 13 16 18 18 18 17 12 15 14 12 10 11 10 9 7 7 12 14 12 13 11 10 10 11 10 8 9 9 6 8 10 12 14 14 13 13 12 13
7 6 6 10 13 15 18 17 18 17 18 19 16 14 12 11 11 12 10 9 7 12 12 14 12 11 9 9 10 11 9 7 6 6 10 10 10 13 14 12 12 15 13
8 10 10 13 15 17 18 18 17 17 17 19 19 19 16 13 12 11 11 12 10 7 12 13 12 10 11 9 9 10 11 7 10 7 8 9 12 11 12 13 14 14 13
9 14 12 15 15 17 18 18 18 17 16 18 17 17 16 16 15 14 14 12 12 8 7 12 11 10 9 9 8 9 8 8 9 10 8 8 12 10 11 12 13 14 13
9 11 15 19 17 17 17 17 17 16 15 14 16 15 15 14 15 15 13 13 13 11 7 8 11 10 9 8 9 7 7 5 7 10 8 8 9 8 8 10 12 13 14
9 10 10 11 13 16 16 15 15 15 14 14 13 14 13 13 13 14 13 12 11 12 11 9 7 12 10 9 7 5 5 3 5 8 9 7 12 5 6 8 10 13 13
7 8 8 8 9 10 11 13 14 13 12 14 13 13 10 9 10 11 8 11 11 11 11 10 7 5 10 11 9 7 4 3 2 4 5 7 8 7 5 6 7 10 11
5 6 7 7 7 7 8 9 9 10 11 11 10 11 6 5 4 5 10 10 10 11 11 10 10 7 8 7 9 7 6 2 1 1 2 3 3 5 4 5 5 6 8
6 6 5 6 5 6 7 7 7 8 10 10 9 7 7 5 6 4 6 7 10 6 9 9 9 6 5 7 8 6 7 3 1 1 2 2 7 1 5 3 6 4 6
7 6 5 5 5 5 6 6 6 7 7 9 9 6 7 5 4 4 3 3 5 8 5 5 4 3 2 2 2 4 4 3 4 2 1 2 7 7 0 3 4 3 2
9 6 5 5 5 6 5 7 8 8 6 6 9 8 5 4 4 5 5 5 5 6 5 5 3 3 2 1 3 3 4 4 4 4 2 3 5 7 6 2 3 1 4
9 7 5 5 5 6 6 7 8 8 7 7 8 10 7 6 5 5 5 5 5 6 6 4 3 2 1 2 2 3 3 3 6 5 6 2 6 7 6 6 4 4 4
10 9 7 5 6 7 7 7 7 7 7 8 9 9 9 7 5 4 4 5 6 6 5 4 4 3 3 4 4 2 3 5 6 7 8 6 6 9 8 7 6 7 6
9 9 8 7 7 7 7 7 7 7 8 9 9 10 9 8 6 5 5 5 6 7 5 5 3 3 3 3 4 5 5 6 6 9 9 8 7 8 12 11 9 7 9
11 10 8 6 7 7 7 6 6 7 8 8 8 9 10 9 7 6 5 5 6 5 5 4 4 4 3 4 3 4 5 7 8 9 10 10 9 8 9 14 13 9 8
11 10 9 8 8 8 7 7 8 7 8 8 7 8 8 8 8 6 6 6 6 5 5 4 3 4 4 4 5 5 5 6 8 9 11 11 12 10 10 10 13 14 12
10 9 9 7 8 8 8 7 6 6 6 7 7 7 7 7 7 5 6 6 5 4 4 4 4 3 3 5 6 7 7 7 7 7 9 11 11 11 11 11 9 12 17
10 9 9 8 7 5 5 4 3 3 4 4 7 6 7 6 5 5 4 5 5 4 5 6 3 4 3 5 5 4 6 8 9 8 8 9 11 11 12 12 10 11 11
11 10 8 7 6 4 4 4 3 3 3 4 5 6 6 6 6 4 4 4 5 3 5 6 6 3 3 5 3 2 3 2 3 5 6 7 9 10 10 8 9 11 12
13 11 9 8 7 5 6 5 5 6 4 2 2 3 5 5 5 5 5 5 5 4 3 4 5 6 3 3 5 3 2 1 4 0 2 2 4 4 6 9 7 8 10
10 11 9 8 7 6 4 4 4 3 4 3 2 3 3 4 5 5 5 5 5 4 4 4 4 4 3 3 1 3 2 2 2 3 0 1 3 2 3 3 4 5 8
8 8 8 8 6 5 4 4 3 4 4 4 3 3 3 3 4 5 5 4 4 4 3 3 3 3 3 3 3 2 2 2 2 3 4 4 5 1 4 4 8 8 7
8 6 8 6 6 5 4 3 4 4 3 3 2 2 2 2 2 4 3 3 3 2 3 3 2 2 2 2 2 2 2 2 2 2 3 5 7 6 7 8 6 7 8
Wind_Direction
162 353 335 345 357 146 141 140 138 137 131 125 119 116 116 114 112 110 114 106 126 114 107 108 100 94 84 85 87 86 81 68 60 58 63 62 63 69 73 40 67 67 62
120 2 345 14 18 116 112 117 128 136 131 128 123 116 114 112 114 104 121 115 131 124 117 110 104 97 90 83 78 80 78 71 67 57 82 92 60 65 64 58 50 67 70
116 19 352 42 39 103 105 96 86 114 129 129 130 123 114 107 112 104 96 109 115 132 124 120 109 100 87 77 69 75 74 71 71 73 1 67 61 44 70 61 62 65 69
94 5 3 71 67 77 100 101 91 78 83 126 125 116 113 110 104 92 77 81 121 140 134 124 122 114 97 78 68 65 64 59 53 11 65 66 71 46 45 66 61 55 66
57 15 84 80 76 79 80 87 92 83 77 71 80 106 104 100 95 83 71 65 83 137 129 126 129 124 114 94 72 60 58 41 28 46 64 49 65 53 51 46 79 63 51
53 26 89 87 82 82 81 82 87 88 80 76 64 67 76 90 90 79 70 61 59 104 134 136 138 130 123 112 89 68 59 31 305 55 52 63 53 47 48 52 64 70 59
66 44 63 83 81 79 79 77 75 75 76 76 72 63 63 64 67 73 66 53 57 67 139 150 148 142 134 127 115 98 73 40 32 42 45 42 51 47 43 47 59 67 70
82 60 57 53 66 67 69 70 69 70 69 70 74 66 58 58 61 61 61 58 55 53 74 160 156 153 146 138 136 122 108 68 51 48 43 52 31 46 53 47 61 59 55
79 70 62 56 54 55 62 64 67 66 65 62 62 65 57 55 58 57 56 54 57 62 53 54 170 162 158 146 144 153 144 112 68 51 42 45 7 35 58 51 52 67 56
90 76 75 63 62 55 57 61 67 65 67 68 60 60 49 58 53 60 61 48 57 61 55 53 59 133 173 157 147 138 155 234 71 76 73 59 18 42 65 49 50 71 64
97 98 85 80 71 77 74 67 65 66 63 64 60 52 69 65 52 69 58 51 55 55 57 52 41 57 133 154 154 151 181 236 201 14 28 48 28 54 64 48 10 92 81
139 104 97 91 85 90 85 73 66 66 57 53 52 52 57 58 41 33 64 55 53 45 59 48 48 64 178 180 171 185 235 214 279 289 347 341 325 41 102 73 37 54 96
137 106 98 93 89 92 95 93 72 57 65 55 48 38 55 55 26 13 17 34 38 21 34 41 51 70 111 170 213 228 255 250 264 289 33 314 311 322 299 151 136 115 71
138 119 107 101 93 84 82 76 74 72 60 62 53 39 45 51 46 38 10 24 37 27 28 21 29 47 38 154 208 231 265 256 249 261 230 265 270 299 301 288 280 196 146
141 130 112 105 97 91 89 89 88 73 65 61 61 48 45 50 41 45 23 12 35 28 18 1 350 353 321 298 222 241 246 293 275 257 267 250 269 263 290 280 255 243 240
145 138 127 111 98 96 90 87 87 89 77 67 58 53 55 56 43 39 52 24 23 12 15 354 345 328 304 300 285 288 279 276 269 272 258 254 247 250 257 269 261 256 234
149 141 134 124 107 102 95 88 81 80 75 71 62 49 54 60 48 49 45 40 16 5 347 342 334 307 303 312 280 278 267 263 273 266 264 256 245 241 250 254 262 268 243
149 147 139 128 118 105 94 88 83 80 79 69 64 61 47 48 44 56 43 37 16 9 356 353 353 326 316 309 286 282 279 265 258 260 265 258 253 247 239 244 249 260 273
154 148 139 137 126 114 103 95 90 80 78 73 61 57 52 46 37 47 50 33 16 17 16 0 8 350 320 310 301 286 269 265 264 260 254 251 244 244 244 240 241 243 252
154 150 140 135 133 126 120 113 98 91 76 76 63 47 52 48 37 38 45 34 23 29 23 11 7 11 342 326 300 284 269 255 256 256 258 257 253 250 243 249 252 246 236
158 154 153 146 143 144 140 131 124 102 102 83 75 56 40 50 45 40 42 41 29 29 25 14 354 357 6 347 295 272 263 246 245 246 251 255 256 255 254 242 247 253 248
166 165 158 147 153 152 147 124 112 121 90 83 81 63 47 40 41 49 42 45 41 31 22 28 22 346 5 8 340 297 296 192 221 260 256 251 260 254 259 256 258 259 259
176 172 164 147 141 130 122 124 117 117 123 139 92 67 47 48 52 34 44 45 41 39 47 28 19 13 358 32 29 337 274 283 329 109 245 256 284 284 337 357 332 290 275
175 161 158 150 140 131 143 146 167 143 143 110 104 80 71 41 52 52 41 34 36 29 37 30 21 8 345 11 312 17 352 340 335 304 212 230 334 333 0 336 325 333 340
149 160 150 146 135 127 115 114 117 108 109 120 125 126 95 81 56 48 34 40 39 26 23 18 18 5 9 343 349 337 347 318 283 282 294 321 327 300 326 326 309 301 312
150 144 151 142 132 117 104 98 102 108 112 127 110 109 73 48 49 39 29 34 40 24 353 351 346 342 335 310 304 302 305 316 338 313 289 311 309 294 319 291 284 299 297